Wahoo, NE

10:06 AM CDT on June 24, 2017 (GMT -0500)
Wahoo Municipal

Weather History for KAHQ - June, 2014

Change the Weather History Date:

Friday, June 27, 2014

  Actual Average Record
Temperature  
Mean Temperature 74 °F -  
Max Temperature 81 °F 87 °F 101 °F (2012)
Min Temperature 66 °F 62 °F 47 °F (1968)
Cooling Degree Days 8    
Growing Degree Days 24 (Base 50)    
Moisture  
Dew Point 67 °F    
Average Humidity 81    
Maximum Humidity 90    
Minimum Humidity 69    
Precipitation  
Precipitation 1.71 in - - ()
Sea Level Pressure  
Sea Level Pressure 29.75 in    
Wind  
Wind Speed 12 mph (SSE)    
Max Wind Speed 28 mph    
Max Gust Speed 34 mph    
Visibility 9 miles    
Events Rain    
Averages and records for this station are not official NWS values.
T = Trace of Precipitation, MM = Missing Value Source: NWS Daily Summary

Daily Weather History Graph

Daily Weather History Graph

Search for Another Location

Airport or City:

Trip Planner

Search our weather history database for the weather conditions in past years. The results will help you decide how hot, cold, wet, or windy it might be!

Date:

Astronomy

Jun. 27, 2014 Rise Set
Actual Time 5:55 AM CDT 9:03 PM CDT
Civil Twilight 5:21 AM CDT 9:37 PM CDT
Nautical Twilight 4:38 AM CDT 10:20 PM CDT
Astronomical Twilight 3:46 AM CDT 11:11 PM CDT
Moon 6:27 AM CDT (6/27) 9:08 PM CDT (6/27)
Length of Visible Light 16h 15m
Length of Day
15h 08m
New Moon, 0% of the Moon is Illuminated
Jun 27
New Moon
Jul 5
First Quarter
Jul 12
Full
Jul 18
Last Quarter
Jul 26
New

Hourly Weather History & Observations

Time (CDT) Temp. Heat Index Dew Point Humidity Pressure Visibility Wind Dir Wind Speed Gust Speed Precip Events Conditions
12:15 AM 70.3 °F - 66.2 °F 87% 29.83 in 10.0 mi ESE 6.9 mph - N/A   Mostly Cloudy
12:35 AM 70.7 °F - 66.6 °F 87% 29.82 in 10.0 mi ESE 9.2 mph - N/A   Mostly Cloudy
12:55 AM 70.5 °F - 66.6 °F 87% 29.82 in 10.0 mi ESE 8.1 mph - N/A   Scattered Clouds
1:15 AM 70.7 °F - 66.6 °F 87% 29.81 in 10.0 mi ESE 8.1 mph - N/A   Scattered Clouds
1:35 AM 71.6 °F - 67.3 °F 86% 29.80 in 10.0 mi SE 9.2 mph - N/A   Overcast
1:55 AM 72.0 °F - 67.1 °F 85% 29.80 in 2.0 mi SE 6.9 mph - 0.04 in Rain Heavy Rain
2:15 AM 71.1 °F - 66.7 °F 86% 29.80 in 10.0 mi ESE 8.1 mph - 0.08 in Rain Light Rain
2:35 AM 70.9 °F - 66.6 °F 86% 29.80 in 10.0 mi ESE 8.1 mph - 0.08 in Rain Light Rain
2:55 AM 70.2 °F - 66.4 °F 88% 29.81 in 3.0 mi North 4.6 mph - 0.22 in Rain Heavy Rain
3:15 AM 69.8 °F - 66.2 °F 88% 29.79 in 5.0 mi East 10.4 mph 17.3 mph 0.15 in Rain Light Rain
3:35 AM 70.2 °F - 66.4 °F 88% 29.78 in 10.0 mi ESE 11.5 mph - 0.15 in Rain Light Rain
3:55 AM 72.1 °F - 66.4 °F 82% 29.79 in 10.0 mi SE 10.4 mph 18.4 mph 0.15 in   Overcast
4:15 AM 70.7 °F - 66.2 °F 86% 29.78 in 10.0 mi SE 8.1 mph - N/A   Overcast
4:35 AM 70.3 °F - 66.4 °F 87% 29.78 in 10.0 mi ESE 8.1 mph - N/A   Mostly Cloudy
4:55 AM 70.7 °F - 66.6 °F 87% 29.78 in 10.0 mi SE 10.4 mph - N/A   Overcast
5:15 AM 70.7 °F - 67.1 °F 88% 29.76 in 10.0 mi SE 15.0 mph 20.7 mph N/A   Overcast
5:35 AM 70.7 °F - 67.1 °F 88% 29.76 in 10.0 mi SE 16.1 mph 20.7 mph N/A   Mostly Cloudy
5:55 AM 70.7 °F - 67.1 °F 88% 29.74 in 10.0 mi North - - N/A   Mostly Cloudy
6:15 AM 70.7 °F - 67.3 °F 89% 29.74 in 7.0 mi ESE 13.8 mph 19.6 mph N/A   Overcast
6:35 AM 70.7 °F - 67.3 °F 89% 29.76 in 7.0 mi SSE 11.5 mph - N/A   Overcast
6:55 AM 71.1 °F - 67.8 °F 89% 29.78 in 7.0 mi SSE 9.2 mph - N/A   Overcast
7:15 AM 70.0 °F - 65.1 °F 85% 29.84 in 10.0 mi WNW 15.0 mph 25.3 mph N/A   Overcast
7:35 AM 66.7 °F - 63.5 °F 89% 29.87 in 0.8 mi WNW 5.8 mph - 0.68 in Rain Heavy Rain
7:55 AM 67.1 °F - 64.0 °F 90% 29.85 in 2.5 mi West 8.1 mph - 1.08 in Rain Heavy Rain
8:15 AM 66.9 °F - 63.5 °F 89% 29.82 in 7.0 mi East 10.4 mph - 0.11 in Rain Light Rain
8:35 AM 66.7 °F - 63.7 °F 90% 29.80 in 10.0 mi ENE 3.5 mph - 0.12 in Rain Light Rain
8:55 AM 67.1 °F - 63.7 °F 89% 29.75 in 7.0 mi East 15.0 mph - 0.17 in Rain Rain
9:15 AM 67.1 °F - 63.5 °F 88% 29.73 in 10.0 mi ESE 21.9 mph 29.9 mph 0.03 in Rain Light Rain
9:35 AM 69.1 °F - 63.7 °F 83% 29.69 in 10.0 mi ESE 27.6 mph 33.4 mph 0.04 in Rain Light Rain
9:55 AM 68.4 °F - 63.5 °F 84% 29.69 in 10.0 mi ESE 23.0 mph 34.5 mph 0.05 in Rain Light Rain
10:15 AM 68.5 °F - 64.4 °F 87% 29.68 in 10.0 mi South 19.6 mph 27.6 mph N/A Rain Light Rain
10:35 AM 69.4 °F - 65.7 °F 88% 29.75 in 10.0 mi South 24.2 mph 29.9 mph N/A Rain Light Rain
10:55 AM 70.2 °F - 65.5 °F 85% 29.73 in 10.0 mi South 16.1 mph 29.9 mph N/A Rain Light Rain
11:15 AM 69.4 °F - 64.6 °F 84% 29.76 in 10.0 mi South 16.1 mph 20.7 mph N/A Rain Light Rain
11:35 AM 69.3 °F - 64.4 °F 84% 29.75 in 10.0 mi SSE 12.7 mph 19.6 mph N/A   Mostly Cloudy
11:55 AM 68.9 °F - 64.4 °F 86% 29.73 in 10.0 mi SSE 12.7 mph - N/A   Scattered Clouds
12:15 PM 70.2 °F - 65.3 °F 85% 29.74 in 10.0 mi South 12.7 mph - N/A   Clear
12:35 PM 71.4 °F - 64.9 °F 80% 29.74 in 10.0 mi SSE 13.8 mph 18.4 mph N/A   Scattered Clouds
12:55 PM 73.4 °F - 66.4 °F 79% 29.74 in 10.0 mi SSE 20.7 mph 26.5 mph N/A   Overcast
1:15 PM 75.9 °F - 68.4 °F 77% 29.74 in 10.0 mi SSE 20.7 mph 25.3 mph N/A   Mostly Cloudy
1:35 PM 77.2 °F - 69.4 °F 77% 29.74 in 10.0 mi SSE 17.3 mph 23.0 mph N/A   Mostly Cloudy
1:55 PM 79.7 °F - 69.6 °F 71% 29.75 in 10.0 mi SSE 21.9 mph 28.8 mph N/A   Scattered Clouds
2:15 PM 78.1 °F - 68.7 °F 73% 29.75 in 10.0 mi South 19.6 mph 29.9 mph N/A   Mostly Cloudy
2:35 PM 78.1 °F - 69.3 °F 74% 29.75 in 10.0 mi SSE 15.0 mph 25.3 mph N/A   Overcast
2:55 PM 78.3 °F - 69.4 °F 74% 29.75 in 10.0 mi SSE 20.7 mph 27.6 mph N/A   Overcast
3:15 PM 77.9 °F - 69.8 °F 76% 29.75 in 10.0 mi SSE 15.0 mph 20.7 mph N/A   Overcast
3:35 PM 78.1 °F - 70.5 °F 77% 29.75 in 10.0 mi SSE 16.1 mph 20.7 mph N/A   Overcast
3:55 PM 78.8 °F - 71.1 °F 77% 29.75 in 10.0 mi North - - N/A   Overcast
4:15 PM 80.6 °F 84.6 °F 71.6 °F 74% 29.74 in 10.0 mi SSE 19.6 mph 26.5 mph N/A   Mostly Cloudy
4:35 PM 80.6 °F 84.6 °F 71.8 °F 74% 29.73 in 10.0 mi SSE 20.7 mph 26.5 mph N/A   Mostly Cloudy
4:55 PM 80.6 °F 84.4 °F 71.4 °F 73% 29.72 in 10.0 mi SSE 16.1 mph 25.3 mph N/A   Mostly Cloudy
5:15 PM 81.1 °F 85.2 °F 71.4 °F 72% 29.71 in 10.0 mi SSE 16.1 mph 27.6 mph N/A   Mostly Cloudy
5:35 PM 81.5 °F 85.5 °F 70.7 °F 70% 29.72 in 10.0 mi SSE 21.9 mph 28.8 mph N/A   Overcast
5:55 PM 81.7 °F 85.6 °F 70.7 °F 69% 29.71 in 10.0 mi SSE 21.9 mph 28.8 mph N/A   Overcast
6:15 PM 81.0 °F 84.7 °F 70.7 °F 71% 29.71 in 10.0 mi SSE 17.3 mph 25.3 mph N/A   Overcast
6:35 PM 81.1 °F 84.7 °F 70.0 °F 69% 29.71 in 10.0 mi SSE 15.0 mph 25.3 mph N/A   Overcast
6:55 PM 80.1 °F 83.0 °F 69.4 °F 70% 29.71 in 10.0 mi SSE 17.3 mph 25.3 mph N/A   Overcast
7:15 PM 79.9 °F - 69.6 °F 71% 29.71 in 10.0 mi SSE 19.6 mph 27.6 mph N/A   Mostly Cloudy
7:35 PM 79.9 °F - 69.1 °F 69% 29.70 in 10.0 mi SSE 16.1 mph 25.3 mph N/A   Scattered Clouds
7:55 PM 79.2 °F - 68.7 °F 70% 29.69 in 10.0 mi SSE 12.7 mph 25.3 mph N/A   Clear
8:15 PM 78.3 °F - 68.4 °F 71% 29.68 in 10.0 mi SSE 18.4 mph 26.5 mph N/A   Clear
8:35 PM 77.4 °F - 67.8 °F 72% 29.69 in 10.0 mi SSE 15.0 mph 20.7 mph N/A   Clear
8:55 PM 76.6 °F - 67.6 °F 74% 29.69 in 10.0 mi SSE 13.8 mph - N/A   Clear
9:15 PM 75.6 °F - 68.0 °F 77% 29.70 in 10.0 mi SSE 12.7 mph - N/A   Clear
9:35 PM 74.8 °F - 68.0 °F 79% 29.70 in 10.0 mi SSE 11.5 mph - N/A   Clear
9:55 PM 74.3 °F - 68.2 °F 81% 29.73 in 10.0 mi SSE 9.2 mph - N/A   Clear
10:15 PM 74.3 °F - 68.4 °F 82% 29.73 in 10.0 mi SSE 10.4 mph - N/A   Clear
10:35 PM 74.1 °F - 68.2 °F 82% 29.74 in 10.0 mi SSE 8.1 mph - N/A   Clear
10:55 PM 73.8 °F - 68.2 °F 83% 29.74 in 10.0 mi SE 9.2 mph - N/A   Clear
11:15 PM 73.4 °F - 68.0 °F 83% 29.74 in 10.0 mi SSE 11.5 mph - N/A   Clear
11:35 PM 73.2 °F - 68.0 °F 84% 29.73 in 10.0 mi SSE 9.2 mph - N/A   Clear
11:55 PM 73.0 °F - 67.6 °F 83% 29.74 in 10.0 mi SSE 6.9 mph - N/A   Clear